This is the latest recevied weather packets stored in our database for station/object K6MBY. If no packets are shown the sender has not sent any weather packets the latest 10 day(s).
| Time | Temp. | Humidity | Pressure | Rain* | Wind** | Luminosity | Snow |
|---|---|---|---|---|---|---|---|
| 1777767625 | 22.78° C | 45% | 1017.8 hPa | 0 mm | - | 367 W/m² | - |
| 1777767321 | 22.22° C | 47% | 1018 hPa | 0 mm | - | 383 W/m² | - |
| 1777767019 | 22.22° C | 48% | 1018 hPa | 0 mm | - | 397 W/m² | - |
| 1777766716 | 21.67° C | 50% | 1017.9 hPa | 0 mm | - | 412 W/m² | - |
| 1777766413 | 21.67° C | 52% | 1018 hPa | 0 mm | - | 428 W/m² | - |
| 1777766109 | 21.67° C | 52% | 1018 hPa | 0 mm | - | 445 W/m² | - |
| 1777765808 | 21.67° C | 53% | 1018.1 hPa | 0 mm | - | 460 W/m² | - |
| 1777765503 | 21.67° C | 50% | 1018.1 hPa | 0 mm | - | 474 W/m² | - |
| 1777765201 | 22.22° C | 52% | 1018.2 hPa | 0 mm | - | 489 W/m² | - |
| 1777764896 | 22.22° C | 44% | 1018.3 hPa | 0 mm | - | 503 W/m² | - |
| 1777764593 | 22.22° C | 47% | 1018.6 hPa | 0 mm | - | 518 W/m² | - |
| 1777764290 | 21.67° C | 51% | 1018.4 hPa | 0 mm | - | 530 W/m² | - |
| 1777763986 | 21.67° C | 52% | 1018.5 hPa | 0 mm | - | 544 W/m² | - |
| 1777763684 | 21.67° C | 51% | 1018.7 hPa | 0 mm | - | 556 W/m² | - |
| 1777763382 | 21.67° C | 52% | 1018.4 hPa | 0 mm | - | 569 W/m² | - |
| 1777763080 | 21.67° C | 51% | 1018.6 hPa | 0 mm | - | 583 W/m² | - |
| 1777762777 | 21.67° C | 52% | 1018.7 hPa | 0 mm | - | 595 W/m² | - |
| 1777762473 | 21.11° C | 54% | 1018.8 hPa | 0 mm | - | 607 W/m² | - |
| 1777762170 | 21.11° C | 53% | 1019.1 hPa | 0 mm | - | 617 W/m² | - |
| 1777761866 | 21.11° C | 54% | 1019 hPa | 0 mm | - | 629 W/m² | - |
| 1777761563 | 21.11° C | 51% | 1019.2 hPa | 0 mm | - | 641 W/m² | - |
| 1777761261 | 21.67° C | 50% | 1019.4 hPa | 0 mm | - | 651 W/m² | - |
| 1777760959 | 21.11° C | 50% | 1019.3 hPa | 0 mm | - | 662 W/m² | - |
| 1777760656 | 20.56° C | 51% | 1019.4 hPa | 0 mm | - | 672 W/m² | - |
| 1777760356 | 20.56° C | 51% | 1019.6 hPa | 0 mm | - | 683 W/m² | - |
* Rain latest hour (hover to see other rain measurements)
** Current wind speed in m/s (hover to see current wind gust speed)